Regional Weather Roundup
Issued by NWS

Home | Current Version | Previous Version | Graphics & Text | Print | Product List | Glossary On
Versions: 1 2 3 4 5 6 7 8 9 10 11 12 13 14 15 16 17 18 19 20 21 22 23 24 25 26 27 28 29 30 31 32 33 34 35 36 37 38 39 40 41 42 43 44 45 46 47 48 49 50
000
ASUS43 KMPX 160301
RWRMN
WEATHER ROUNDUP FOR MINNESOTA
NATIONAL WEATHER SERVICE TWIN CITIES/CHANHASSEN MN
1000 PM CDT MON SEP 15 2014


NOTE: "FAIR" INDICATES FEW OR NO CLOUDS BELOW 12,000 FEET WITH NO
SIGNIFICANT WEATHER AND/OR OBSTRUCTIONS TO VISIBILITY. N/A MEANS
CURRENT SKY AND/OR WEATHER CONDITIONS ARE NOT AVAILABLE.

MNZ060>063-068>070-160400-
   Twin Cities Metro

CITY           SKY/WX    TMP DP  RH WIND       PRES   REMARKS
TWIN CITIES    CLEAR     51  39  63 NW3       30.22R
ST PAUL        CLEAR     48  44  86 CALM      30.23R
CRYSTAL        CLEAR     47  41  80 CALM      30.21R
BLAINE         CLEAR     46  45  93 CALM      30.21S
LAKEVILLE      CLEAR     41  39  93 CALM      30.22S
EDEN PRAIRIE   CLEAR     49  40  71 CALM      30.21R
SOUTH ST PAUL  CLEAR     48  42  80 CALM      30.22R
LAKE ELMO      FAIR      43  41  93 CALM      30.23R
$$
MNZ001>005-007-008-013>017-022>024-027-028-160400-
   Northwest Minnesota

CITY           SKY/WX    TMP DP  RH WIND       PRES   REMARKS
BEMIDJI        CLEAR     47  38  71 SW5       30.12S
HALLOCK        CLEAR     46  39  76 SW3       30.05S
ROSEAU         CLEAR     46  39  76 SW8       30.04F
WARROAD        PTCLDY    48  41  76 CALM      30.05S
THIEF RVR FALL CLEAR     50  39  66 S9        30.08S
CROOKSTON      CLEAR     48  43  81 SW7       30.10S
FOSSTON        CLEAR     46  37  71 S9        30.12S
DETROIT LAKES  CLEAR     50  41  71 SW8       30.16S
MOORHEAD       CLEAR     52  43  71 SW8       30.15S
PARK RAPIDS    CLEAR     46  38  73 SW8       30.15S
MAHNOMEN       FAIR      46  38  75 S9        30.13R
$$
MNZ006-009>011-018-025>026-160400-
   North Central Minnesota

CITY           SKY/WX    TMP DP  RH WIND       PRES   REMARKS
BAUDETTE       MOCLDY    47  39  74 S3        30.05F
FLAG ISLAND    PTCLDY    52  43  71 SW10      30.02S
INTL FALLS     MOCLDY    36  35  96 S3        30.07F
WASKISH        MOCLDY    48  43  81 CALM      30.08F
BIG FORK       CLEAR     39  37  93 SW1       30.12S
LONGVILLE      CLEAR     39  37  93 CALM      30.14F
GRAND RAPIDS   CLEAR     41  36  81 S6        30.14S
CRANE LAKE     CLEAR     39  37  93 S5        30.11S
ORR            CLEAR     46  34  61 CALM      30.09S
COOK           CLEAR     45  37  76 S3        30.12S
WALKER         FAIR      46  37  70 SW6       30.13F
$$
MNZ012-019>021-037-160400-
   Northeast Minnesota

CITY           SKY/WX    TMP DP  RH WIND       PRES   REMARKS
DULUTH         CLEAR     43  35  73 W6        30.15S
ELY            CLEAR     41  37  87 SW5       30.12R
HIBBING        CLEAR     37  34  89 CALM      30.13F
EVELETH        CLEAR     36  36 100 CALM      30.14S
DULUTH HARBOR  CLEAR     50  43  76 SW9       30.16S
TWO HARBORS    CLEAR     43  36  75 W3        30.12F
SILVER BAY     CLEAR     37  37 100 CALM      30.12S
GRAND MARAIS     N/A     47  40  76 CALM      30.09F
G MARAIS ARPRT CLEAR     41  34  75 W3        30.10F
$$
MNZ029>031-032-039>041-046>048-054>057-064-160400-
   West Central Minnesota

CITY           SKY/WX    TMP DP  RH WIND       PRES   REMARKS
FERGUS FALLS   CLEAR     46  36  66 S6        30.18S
WHEATON        CLEAR     46  36  66 S8        30.21S
MORRIS         CLEAR     45  39  81 S5        30.19S
ALEXANDRIA     CLEAR     45  39  79 SW6       30.21R
ELBOW LAKE     FAIR      45  37  72 S7        30.18F
WADENA         CLEAR     43  36  75 SW7       30.17S
GLENWOOD       CLEAR     45  39  81 S5        30.21S
APPLETON       CLEAR     45  41  87 CALM      30.21S
BENSON         CLEAR     43  39  87 SW5       30.21S
ORTONVILLE     CLEAR     48  36  61 S5        30.21R
MADISON        CLEAR     46  43  87 SW5       30.22S
WILLMAR        FAIR      46  41  81 CALM      30.23S
$$
MNZ033>034-036-042>043-049>051-058-059-160400-
   Central Minnesota

CITY           SKY/WX    TMP DP  RH WIND       PRES   REMARKS
ST CLOUD       CLEAR     46  41  82 CALM      30.20S
SAUK CENTRE    FAIR      41  38  89 CALM      30.21S
PAYNESVILLE    CLEAR     39  37  92 CALM      30.22S
AITKIN         CLEAR     43  37  81 CALM      30.15F
PINE RIVER     CLEAR     39  37  93 CALM      30.19S
BRAINERD       CLEAR     39  38  96 S3        30.18S
STAPLES        CLEAR     43  37  81 S3        30.17F
LONG PRAIRIE   FAIR      41  39  93 CALM      30.20S
LITTLE FALLS   CLEAR     41  37  87 CALM      30.20S
LITCHFIELD     CLEAR     46  45  93 CALM      30.22S
BUFFALO        CLEAR     44  40  87 CALM      30.22S
MAPLE LAKE     CLEAR     43  42  95 CALM      30.22S
$$
MNZ037-044-045-052-053-160400-
   East Central Minnesota

CITY           SKY/WX    TMP DP  RH WIND       PRES   REMARKS
PRINCETON      FAIR      43  39  87 CALM      30.20S
MORA           CLEAR     39  37  93 CALM      30.21S
CAMBRIDGE      CLEAR     45  37  76 CALM      30.19S
RUSH CITY      PTCLDY    39  38  95 CALM      30.20S
MOOSE LAKE     CLEAR     37  37 100 CALM      30.16S
HINCKLEY       FAIR      39  39 100 CALM      30.18S
CLOQUET        CLEAR     45  36  70 SW5       30.16S
MCGREGOR       CLEAR     45  37  76 CALM      30.17S
$$
MNZ071>073-080-081-089-090-097-098-160400-
   Southwest Minnesota

CITY           SKY/WX    TMP DP  RH WIND       PRES   REMARKS
MONTEVIDEO     CLEAR     45  39  81 SW3       30.23S
GRANITE FALLS  CLEAR     43  40  87 S3        30.24S
CANBY          CLEAR     44  41  91 CALM      30.23S
MARSHALL       CLEAR     45  39  81 SW5       30.22S
REDWOOD FALLS  CLEAR     49  40  71 W3        30.23R
OLIVIA         CLEAR     46  41  81 CALM      30.22S
PIPESTONE      CLEAR     46  41  81 CALM      30.24R
WINDOM         CLEAR     45  45 100 CALM      30.24S
WORTHINGTON    CLEAR     43  39  87 CALM      30.25S
JACKSON        CLEAR     43  41  93 CALM      30.25S
TRACY          CLEAR     47  43  85 CALM      30.24S
SLAYTON        CLEAR     46  40  82 CALM      30.25R
$$
MNZ065>067-074>077-082>085-091>093-160400-
   South Central Minnesota

CITY           SKY/WX    TMP DP  RH WIND       PRES   REMARKS
MANKATO        CLEAR     48  39  71 CALM      30.23S
NEW ULM        CLEAR     46  43  87 CALM      30.23S
ST JAMES       CLEAR     45  41  87 SW3       30.25R
FAIRMONT       CLEAR     45  37  76 CALM      30.24S
GLENCOE        CLEAR     46  41  83 CALM      30.21S
FARIBAULT      CLEAR     45  39  81 CALM      30.23S
OWATONNA       CLEAR     43  41  93 CALM      30.23S
WASECA         CLEAR     41  36  81 CALM      30.25S
ALBERT LEA     CLEAR     45  43  93 CALM      30.24S
$$
MNZ078>079-086>088-094>096-160400-
   Southeast Minnesota

CITY           SKY/WX    TMP DP  RH WIND       PRES   REMARKS
ROCHESTER      CLEAR     45  40  82 W7        30.24R
RED WING       CLEAR     45  43  93 N3        30.21S
STANTON        CLEAR     42  40  91 S5        30.21S
DODGE CENTER   CLEAR     45  41  87 W3        30.23S
WINONA         CLEAR     48  46  93 CALM      30.23R
AUSTIN         CLEAR     45  43  93 CALM      30.23S
PRESTON        CLEAR     46  44  91 NW5       30.23S
$$
ABBREVIATIONS USED IN REMARKS
   TC - TEMPERATURES IN CELSIUS
  WCI - WIND CHILL INDEX
   HX - HEAT INDEX
  VSB - VISIBILITY
$$


USA.gov is the U.S. government's official web portal to all federal, state and local government web resources and services.